Weather Roundup
Issued by NWS Corpus Christi, TX

Home | Current Version | Previous Version | Text Only | Print | Product List | Glossary On
Versions: 1 2 3 4 5 6 7 8 9 10 11 12 13 14 15 16 17 18 19 20 21 22 23 24 25 26 27 28 29 30 31 32 33 34 35 36 37 38 39 40 41 42 43 44 45 46 47 48 49 50
000
ASUS44 KCRP 181210
HRRCRP

SOUTH TEXAS REGIONAL WEATHER ROUNDUP
NATIONAL WEATHER SERVICE CORPUS CHRISTI TX
600 AM CST THU JAN 18 2018


TXZ229>244-181300-
...CORPUS CHRISTI AREA OBSERVATIONS...

CITY           SKY/WX    TMP DP  RH WIND       PRES   REMARKS
CORPUS CHRISTI CLOUDY    35  19  52 N13       30.53R WCI  26
NAS CORPUS CHR CLOUDY    38  24  57 N16       30.52R WCI  29
ROCKPORT       CLOUDY    35  19  52 N12       30.51F WCI  27
KINGSVILLE ARP CLOUDY    37  19  47 N6        30.52F
KINGSVILLE NAS CLOUDY    36  17  46 N9        30.52S
ALICE          CLOUDY    36  14  40 NE7       30.52S
$$

...VICTORIA AREA OBSERVATIONS...

CITY           SKY/WX    TMP DP  RH WIND       PRES   REMARKS
PORT LAVACA    CLOUDY    34  22  62 NE8       30.55R
VICTORIA       CLOUDY    34  17  50 NE6       30.54F
BEEVILLE       CLOUDY    34  19  54 N10       30.52S WCI  26
PLEASANTON     CLOUDY    34  17  48 CALM      30.54S
SAN ANTONIO    CLOUDY    34  16  47 E3        30.52R
$$

...LAREDO AREA OBSERVATIONS...

CITY           SKY/WX    TMP DP  RH WIND       PRES   REMARKS
LAREDO         CLOUDY    34  19  54 NE6       30.52S
COTULLA        CLOUDY    34  14  43 CALM      30.53S
DEL RIO        PTCLDY    32  14  47 E9        30.46F
MCALLEN        CLOUDY    37  16  41 N10       30.51  WCI  30
HEBBRONVILLE   CLOUDY    32  15  48 N3        30.51S
$$

...OTHER TEXAS OBSERVATIONS...

CITY           SKY/WX    TMP DP  RH WIND       PRES   REMARKS
BROWNSVILLE    CLOUDY    37  21  52 NW12      30.47  WCI  30
HOUSTON        CLOUDY    23  17  78 N5        30.57S
COL. STATION   CLOUDY    21  14  74 CALM      30.57R
AUSTIN         CLOUDY    31  19  61 CALM      30.54S
WACO           CLOUDY    12   7  80 W3        30.55F
FORT WORTH     CLOUDY    19  10  68 SW6       30.51F
WICHITA FALLS  CLOUDY    17   7  64 S10       30.44F WCI   5
LUBBOCK        CLOUDY    20  -4  34 W8        30.31F
EL PASO        PTCLDY    27  13  55 NE7       30.28S
$$

...MARINE OBSERVATIONS...

STATION/POSITION TIME  SKY/WX   TEMP    WIND        PRES    VSBY  WAVE   SWELL
                                AIR SEA DIR/SP/G                  HT/PER HT/PER
                 (UTC)          (F)     (DEG/KT/KT) (MB)    (MI)  (FT/S) (FT/S)
PORT ARANSAS     NOT AVBL
BUOY 90 E PORT A 1150            49 70   30/ 12/ 16 1032.3R         4/ 6   3/ 6
BUOY 200 E PT IS 1150            57 72   60/ 14/ 17 1030.1R         7/ 8   7/ 8
BUOY 15 E GALVES 1050            35 51   40/ 10/ 14 1034.4          3/ 5   2/ 6
$$




USA.gov is the U.S. government's official web portal to all federal, state and local government web resources and services.